Погода Пограничное

Погода Пограничное : погода сейчас, прогноз погоды и архив. Всё, что Вы хотите узнать о погоде Пограничное!

Хотите узнать прогноз погоды Пограничное? Тогда Вам сюда: Погода Пограничное

Поиск расширенной информации на нашем сайте:

Другие новости

Новости СМИ2

Главная страница сайта

Новости сайта

03.07.2017

Напоминаем, что на нашем специализированном сайте Метеоцентр.Азия вы можете получить высокодетализированные автоматические прогнозы погоды по пунктам России, СНГ и мира в авиационном формате (включающие направление и скорость ветра, видимость, явления погоды, количество и форму облачности, нижнюю и верхнюю границу облачности).

Рекомендуем: ремонт стиральной машины бош макс

Погода Пограничное - сегодня

Время (UTC), дата Ветер
(°,м/с) 
Видим.   Явления Облачность Т
(°С)
Тd
(°С)
f(%) Тe
(°С)
Pmin
(гПа)
dP
(гПа)
Po
(мм)
O2
(г/м3)
Тmin Tmax R s Состояние
почвы
18 11.12.17 340 (С) 3-6{08}  4000 м  слаб. снег  10/10 300 м 
[Frnb|Ns]
-5.1 -5.9 94 -7  1005.3  -2  753  310           
21 11.12.17 350 (С) 4-8{10}  4000 м  слаб. снег  10/10 300 м 
[Frnb|Ns]
-4.6 -5.5 93 -8  1002.9  -2.4  751  309  -8.9    48  равномерный
сухой снег
100% 
00 12.12.17 340 (С) 4-9{09}  2000 м  слаб. ливневой снег  10/10 300 м кучево-дожд. 
[Cb cap]
-3.7 -4.4 95 -7  1001  -1.9  750  307           
03 12.12.17 350 (С) 4-9{11}  1000 м  ливневой снег  10/10 300 м кучево-дожд. 
[Cb cap]
-2.4 -2.8 97 -5  997.2  -3.8  747  304           
06 12.12.17 350 (С) 4-8{11}  2000 м  слаб. ливневой снег  10/10 300 м кучево-дожд. 
[Cb cap]
-1.7 -1.9 99 -4  995.5  -1.7  746  303           
09 12.12.17 020 (С) 3-8{10}  1000 м  ливневой снег  10/10 300 м кучево-дожд. 
[Cb cap]
-0.8 -1 99 -3  994.5  -0.9  745  301    -0.8  13     
12 12.12.17 360 (С) 3-7{11}  10 км  {ливн. осадки}  10/10 300 м кучево-дожд. 
[Cb cap]
-0.6 -0.8 99 -2  995.2  0.6  746  301           
18 12.12.17 350 (С) 5-11{13}  10 км    10/10 600 м кучево-дожд. 
[Cb cap]
-0.5 -1.3 94 -4  999.4  2.8  749  302           
21 12.12.17 350 (С) 6-12{15}  20000 м    9/9 600 м 
[Sc diur, vesp]
-0.6 -2.6 86 -4  1002.1  2.7  751  303  -0.8    0.8  58  равномерный
сухой снег
100% 
00 13.12.17 350 (С) 5-12{15}  20000 м    10/10 600 м 
[Sc]
-0.8 -2.8 86 -4  1005.6  3.5  753  305  -0.9         
03 13.12.17 350 (С) 6-15{18}  20000 м    10/10 600 м 
[Sc]
-1.2 -3.4 85 -5  1008.2  2.5  755  306           
06 13.12.17 350 (С) 6-15{17}  20000 м    10/10 300 м 
[Sc]
-1.8 -3.8 86 -6  1011.4  3.2  758  308           
09 13.12.17 350 (С) 5-12{15}  20000 м    10/10 300 м 
[Sc]
-2.4 -4.4 86 -6  1014.1  2.6  760  309    -0.6       
12 13.12.17 340 (С) 6-12{13}  20000 м    10/10 300 м 
[Sc]
-3.1 -4.6 89 -7  1015.6  1.5  761  311           
15 13.12.17 340 (С) 5-8{12}  20000 м    10/10 600 м 
[Sc]
-2.9 -6.3 77 -6  1016.4  0.8  761  311           
18 13.12.17 330 (СЗ) 3-6{11}  20000 м    10/10 300 м 
[Sc]
-3.5 -7.1 76 -6  1018.1  1.7  763  312           
21 13.12.17 300 (СЗ) 2-3{09}  20000 м    ясно 
-5.2 -9.4 72 -7  1018.9  0.9  763  315  -5.2      55  равномерный
сухой снег
100% 
00 14.12.17 300 (СЗ) 1-2{04}  20000 м    6/6 600 м 
[Sc]
-8.3 -10.7 83 -8  1019.9  764  319  -10         
03 14.12.17 040 (СВ) 1-2{04}  20000 м    9/9 600 м 
[Sc]
-3.4 -8.7 67 -3  1018.8  -1.1  763  312           
06 14.12.17 340 (С) 1-2{04}  20000 м    10/6 600 м средняя 
[Sc|Ac und]
-4.9 -8.1 78 -4  1018.4  -0.4  763  314           
09 14.12.17 280 (З) 2-3{03}  20000 м    10/10 600 м 
[Sc]
-9.4 -11.1 87 -11  1018.7  0.3  763  320    -2.9       
12 14.12.17 270 (З) 1-2{03}  20000 м    10/10 600 м 
[Sc]
-10.3 -12.2 86 -10  1018.6  -0.2  763  321           
15 14.12.17 250 (З) 1-2{03}  20000 м    4/4 600 м 
[Sc]
-10.7 -12.3 88 -11  1018.1  -0.4  763  321           
18 14.12.17 290 (З) 1-1{02}  20000 м    6/6 600 м 
[Sc]
-11 -12.6 88 -11  1017.2  -0.9  762  321           
21 14.12.17 260 (З) 1-1{02}  20000 м    10/4 600 м верхняя 
[Sc|Ci fib]
-11.6 -13.4 86 -11  1016.9  -0.4  762  322  -11.8      53  равномерный
сухой снег
100% 
Время (UTC), дата Ветер
(°,м/с) 
Видим.   Явления Облачность Т
(°С)
Тd
(°С)
f(%) Тe
(°С)
Pmin
(гПа)
dP
(гПа)
Po
(мм)
O2
(г/м3)
Тmin Tmax R s Состояние
почвы

Для получения пояснительной информации подведите курсор к названию столбца.

ПОГОДА Пограничное - архив

Всё, что Вы хотите узнать о погоде Пограничное - удобно и подробно!

Выберите нужную дату (начиная с 1 января 2015* года) и нажмите кнопку "Найти".
Будут отображены архивные сводки погоды по пункту Пограничное, начиная с указанной даты.


Отображать данные в формате CSV (для использования в таблицах Excel)


Внимание! Наш архив погоды предназначен исключительно для личного некоммерческого использования в познавательных целях. Если Вам необходимы официальные справки о состоянии погоды (для производственных, юридических, коммерческих и т.п. целей), обращайтесь в органы Росгидромета.

*Примечание: данная дата относится к архиву по метеостанциям СССР (Россия, СНГ, Балтия).
Архив по метеостанциям Зарубежной Европы и Азии (кроме Китая) хранится 10 дней, по другим регионам земного шара (Китай, Африка, Америка, Австралия, Океания) - 1 день.

Пограничное - район местоположения метеостанции


Название, широта, долгота, высота метеостанции:
Пограничное 50.4°ш. 143.8°д. 8 м над ур. моря [Российская Федерация]

Дополнительная информация

В oтличие oт бoльшинства пoгoдных сайтoв мы публикуем пoдрoбную метеoинфoрмацию в детальнoм прoфессиoнальнoм фoрмате.

Характеристики температуры и влажнoсти вoздуха измеряются на высoте 2 м в тени вдали oт зданий и деревьев.
Скoрoсть ветра измеряется на высoте 10 м (на урoвне рoста челoвека скoрoсть ветра ниже в 1.5-2 раза). Если метеoстанция нахoдится в гoрoде или в лесу, тo скoрoсть ветра занижена на 2-4 м/с пo сравнению с oткрытым местoм. Скoрoсть ветра над акватoриями крупных рек и oзёр, а также на вершинах хoлмoв на 2-5 м/с выше, чем в oбычных услoвиях.
Атмoсфернoе давление в разных тoчках местнoсти мoжет значительнo oтличаться oт давления на метеoстанции, в зависимoсти oт услoвий рельефа (при пoдъёме на 10 м давление пoнижается примернo на 1 мм рт.ст.).